Home   Weather   Preveza   Past weeks

Flag for Greece Past Weather in Preveza, Greece — Yesterday and Last 2 Weeks

Now
70 °F

Passing clouds.


Feels Like: 70 °F
Forecast: 65 / 77 °F
Wind: No wind

Location: Aktion Airport

Current Time: Sep 28, 2016 at 9:53:30 PM

Latest Report: Sep 28, 2016 at 8:50 PM


Visibility: N/A

Pressure: 30.27 "Hg

Humidity: 60%

Dew Point: 55 °F

Location of PrevezaLocation

Past Weather in Preveza — Graph

°F

Preveza Temperature Yesterday

Maximum temperature yesterday: 81 °F (at 3:50 PM)
Minimum temperature yesterday: 57 °F (at 12:20 PM)
Average temperature yesterday: 71 °F

High & Low Weather Summary for the Past Weeks

 TemperatureHumidityPressure
High84 °F (Sep 17, 1:20 PM)100% (Sep 16, 2:50 AM)30.30 "Hg (Sep 16, 2:50 AM)
Low57 °F (Sep 27, 12:20 PM)23% (Sep 25, 3:20 PM)29.71 "Hg (Sep 19, 6:20 AM)
Average73 °F65%30.01 "Hg
* Reported Sep 13 8:20 PM — Sep 28 8:20 PM, Preveza, Weather by CustomWeather, © 2016

Note: Actual official high and low records may vary slightly from our data, if they occured in-between our weather recording intervals... More about our weather records

Advertising

Preveza Weather History for the Previous 24 Hours

Scroll right to see more
 ConditionsComfort  
Time TempWeatherWind HumidityBarometerVisibility
8:20 PM
Wed, Sep 28
72 °FPassing clouds.6 mph57%30.27 "HgN/A
7:50 PM72 °FPassing clouds.6 mph53%30.24 "HgN/A
7:20 PM72 °FPassing clouds.5 mph50%30.24 "HgN/A
6:50 PM75 °FPassing clouds.No wind44%30.24 "HgN/A
6:20 PM77 °FPassing clouds.No wind36%30.24 "HgN/A
5:50 PM77 °FPassing clouds.No wind36%30.24 "HgN/A
5:20 PM77 °FPassing clouds.No wind39%30.24 "HgN/A
4:50 PM79 °FPassing clouds.5 mph32%30.24 "HgN/A
4:20 PM77 °FPassing clouds.6 mph39%30.24 "HgN/A
3:50 PM81 °FPassing clouds.8 mph30%30.24 "HgN/A
3:20 PM81 °FPassing clouds.8 mph32%30.24 "HgN/A
2:50 PM79 °FPassing clouds.8 mph34%30.27 "HgN/A
2:20 PM79 °FPassing clouds.8 mph37%30.27 "HgN/A
1:50 PM77 °FPassing clouds.8 mph100%30.27 "HgN/A
1:20 PM77 °FPassing clouds.10 mph36%30.27 "HgN/A
12:50 PM77 °FPassing clouds.12 mph36%30.30 "HgN/A
12:20 PM75 °FPassing clouds.10 mph39%30.30 "HgN/A
11:50 AM75 °FPassing clouds.10 mph39%30.30 "HgN/A
11:20 AM73 °FPassing clouds.9 mph44%30.27 "HgN/A
10:50 AM73 °FPassing clouds.9 mph44%30.27 "HgN/A
10:20 AM72 °FSunny.10 mph47%30.27 "Hg10 mi
9:50 AM72 °FSunny.10 mph50%30.27 "Hg10 mi
9:20 AM70 °FSunny.10 mph50%30.27 "Hg10 mi
8:50 AM70 °FSunny.12 mph46%30.27 "Hg10 mi
8:20 AM68 °FSunny.9 mph43%30.24 "Hg10 mi
7:50 AM64 °FSunny.9 mph49%30.24 "Hg10 mi
7:20 AM64 °FClear.8 mph52%30.24 "Hg10 mi
6:50 AM66 °FClear.8 mph49%30.24 "Hg10 mi
6:20 AM66 °FClear.10 mph64%30.24 "Hg10 mi
5:50 AM66 °FClear.10 mph49%30.21 "Hg10 mi
4:50 AM66 °FClear.8 mph49%30.21 "Hg10 mi
3:50 AM66 °FClear.8 mph60%30.21 "Hg10 mi
2:50 AM68 °FClear.10 mph56%30.21 "Hg10 mi
1:50 AM68 °FClear.9 mph56%30.21 "Hg10 mi
12:50 AM64 °FPassing clouds.6 mph73%30.21 "HgN/A
11:50 PM
Tue, Sep 27
66 °FPassing clouds.7 mph78%30.21 "HgN/A
10:50 PM64 °FPassing clouds.No wind78%30.18 "HgN/A
9:50 PM64 °FPassing clouds.No wind78%30.18 "HgN/A
Weather by CustomWeather, © 2016

See weather overviewHow to use our weather pages